Location: Hilton Head Island
(32.2163°N, 80.7526°W)
Time: 04:12:15
(UTC-04:00)

Transit 2A Rocket - Pass Details

Date: 12 February 2026
Orbit: 583 x 900 km, 66.7° (Epoch: 8 March)

Event Time Altitude Azimuth Distance (km) Brightness Sun altitude
Rises 03:39:08 0° 327° (NNW) 3,303 - -44.6°
Reaches altitude 10° 03:41:44 10° 322° (NW) 2,318 - -44.1°
Maximum altitude 03:46:46 46° 250° (WSW) 962 - -43.0°
Drops below altitude 10° 03:51:20 10° 177° (S) 2,104 - -42.1°
Sets 03:53:36 0° 171° (S) 2,968 - -41.6°
